This is the latest recevied weather packets stored in our database for station/object KSRC. If no packets are shown the sender has not sent any weather packets the latest 10 day(s).
| Time | Temp. | Humidity | Pressure | Rain* | Wind** | Luminosity | Snow |
|---|---|---|---|---|---|---|---|
| 1777415625 | - | - | 1010.5 hPa | - | - | - | - |
| 1777415021 | - | - | 1011.2 hPa | - | - | - | - |
| 1777414421 | 25.56° C | 78% | 1009.8 hPa | - | - | - | - |
| 1777413825 | 25.56° C | 78% | 1009.8 hPa | - | - | - | - |
| 1777413219 | 23.89° C | 83% | 1009.5 hPa | - | - | - | - |
| 1777412622 | 23.89° C | 83% | 1009.5 hPa | - | - | - | - |
| 1777412024 | 23.89° C | 83% | 1009.5 hPa | - | - | - | - |
| 1777411423 | 23.89° C | 83% | 1009.5 hPa | - | - | - | - |
| 1777410819 | 23.89° C | 83% | 1009.5 hPa | - | - | - | - |
| 1777410221 | 23.89° C | 83% | 1009.5 hPa | - | - | - | - |
| 1777409618 | 22.78° C | 88% | 1009.5 hPa | - | - | - | - |
| 1777409023 | 21.67° C | 94% | 1011.2 hPa | - | - | - | - |
| 1777408419 | 21.67° C | 94% | 1011.2 hPa | - | - | - | - |
| 1777407947 | - | - | 1011.2 hPa | - | - | - | - |
| 1777407224 | 20° C | 93% | 1011.5 hPa | - | - | - | - |
| 1777406624 | 20° C | 93% | 1012.5 hPa | - | - | - | - |
| 1777406017 | 20.56° C | 88% | 1012.2 hPa | - | - | - | - |
| 1777405425 | 21.67° C | 94% | 1011.5 hPa | - | - | - | - |
| 1777404826 | 21.67° C | 94% | 1011.5 hPa | - | - | - | - |
| 1777404225 | 20.56° C | 100% | 1009.8 hPa | - | - | - | - |
| 1777403623 | 21.67° C | 94% | 1012.9 hPa | - | - | - | - |
| 1777403024 | 21.67° C | 94% | 1012.9 hPa | - | - | - | - |
| 1777402425 | 21.67° C | 94% | 1012.2 hPa | - | - | - | - |
| 1777401821 | 21.67° C | 94% | 1012.2 hPa | - | - | - | - |
| 1777401223 | 21.67° C | 100% | 1013.2 hPa | - | - | - | - |
* Rain since midnight (hover to see other rain measurements)
** Current wind speed in m/s (hover to see current wind gust speed)